SCP
0 0 0 0 0 0 0 0 0 0 0 0 0 0 0 0 0 0 0 0 0 0 0 0 0 0 0 0 0 0 -0 0 0 0 0 0 0 0 0 0 0 0 0 0 0 0 0 0 0 0 0 0 0 0
0 0 0 0 0 0 0 0 0 0 0 0 0 0 0 0 0 0 0 0 0 0 0 0 0 -0 -0 -0 0 0 -0 -0 0 0 -0 0 0 0 0 0 0 0 0 0 0 0 0 -0 0 -0 0 0 0 0
0 0 0 0 0 0 0 0 0 0 0 0 0 0 0 0 0 0 0 0 0 0 0 0 0 0 0 -0 0 0 0 -0 0 0 0 0 0 -0 0 0 0 0 0 0 0 0 0 0 0 -0 0 -0 0 0
0 0 0 0 0 0 0 0 0 0 0 0 0 0 0 0 0 0 0 0 0 0 0 0 -0 -0 0 0 0 0 0 0 -0 0 0 -0 -0 -0 0 0 0 0 0 0 0 0 0 -0 -0 -0 -0 -0 0 0
0 0 0 0 0 0 0 0 0 0 0 0 0 -0 -0 -0 0 0 0 0 0 0 0 0 -0 0 -0 0 -0 0 0 0 -0 -0 -0 -0 0 0 0 -0 -0 0 0 0 0 0 0 0 0 0 -0 -0 0 0
0 0 0 0 0 0 0 0 0 0 0 0 0 -0 -0 -0 0 0 0 0 0 0 0 0 0 0 0 -0 0 0 0 0 -0 -0 0 -0 -0 0 0 0 0 0 0 0 0 0 0 0 0 -0 -0 -0 -0 -0
0 0 0 0 0 0 0 0 0 0 0 0 -0 -0 -0 0 0 0 0 0 0 0 0 0 0 0 0 0 0 0 0 0 -0 -0 -0 0 -0 -0 0 0 0 0 0 0 0 0 0 0 0 0 -0 -0 -0 -0
0 0 0 0 0 0 0 0 0 0 0 0 0 -0 -0 0 0 0 0 0 0 0 0 0 0 0 0 0 -0 0 0 0 -0 -0 -0 0 0 0 0 0 0 0 0 0 0 0 0 0 0 0 0 0 -0 -0
0 0 0 0 0 0 0 0 0 0 0 -0 0 0 0 0 0 0 0 0 0 0 0 0 0 0 0 -0 -0 0 0 -0 -0 -0 0 0 0 0 0 0 0 0 0 0 0 0 0 0 0 0 0 0 0 0
0 0 0 0 0 0 0 0 0 0 -0 0 0 0 0 0 0 0 0 0 0 0 0 0 0 0 -0 -0 -0 -0 0 0 -0 -0 -0 0 0 0 0 0 0 0 -0 0 0 0 0 0 0 0 0 0 0 0
0 0 0 0 0 0 0 0 0 0 0 0 0 0 0 0 0 0 0 0 0 0 0 0 0 0 -0 -0 -0 -0 0 -0 -0 -0 -0 -0 -0 0 0 0 0 0 0 0 -0 -0 -0 0 0 -0 -0 -0 -0 0
0 0 0 0 0 0 0 0 0 0 0 0 0 0 0 0 0 0 0 0 0 0 0 0 0 0 -0 0 -0 -0 0 0 -0 0 -0 -0 -0 0 0 0 0 0 0 0 -0 -0 -0 -0 -0 -0 0 0 0 0
0 0 0 0 0 0 0 0 0 0 0 0 0 0 0 0 0 0 0 0 0 0 0 0 0 0 0 -0 -0 -0 0 0 0 -0 -0 0 0 0 -0 0 0 0 0 0 0 0 0 0 0 0 0 -0 -0 -0
0 0 0 0 0 0 0 0 0 0 0 0 0 0 0 0 0 0 0 0 0 0 0 0 0 0 0 0 -0 -0 -0 0 0 -0 -0 -0 0 0 -0 0 0 -0 0 0 0 0 0 0 0 0 0 -0 -0 -0
0 0 0 0 0 0 0 0 0 0 0 0 0 0 0 0 0 0 0 0 0 0 0 0 0 0 0 -0 0 0 0 0 0 0 0 -0 -0 -0 -0 -0 -0 -0 0 0 0 0 0 0 0 -0 -0 -0 -0 0
0 0 0 0 0 0 0 0 0 0 0 0 0 0 0 0 -0 0 0 0 0 0 0 0 0 0 0 0 0 0 0 0 0 0 0 -0 -0 -0 -0 -0 0 -0 0 0 0 0 0 -0 -0 -0 -0 -0 0 0
0 0 0 0 0 0 0 0 0 0 0 0 0 0 -0 0 0 0 0 0 0 0 0 0 0 0 0 0 0 0 0 0 0 0 0 -0 0 0 0 0 0 0 0 0 0 0 0 0 0 0 0 0 0 0
0 0 0 0 0 0 0 0 0 0 0 0 0 0 0 0 0 0 0 0 0 0 0 0 0 0 0 0 0 0 0 0 0 0 0 0 0 0 0 0 0 0 0 0 0 0 0 0 0 0 0 0 -0 -0
0 0 0 0 0 0 0 0 0 0 0 0 0 0 0 0 0 0 0 0 0 0 0 0 0 0 0 0 0 0 0 0 0 0 0 0 0 0 0 0 0 0 0 0 0 -0 -0 0 0 0 -0 -0 -0 -0
0 0 0 0 0 0 0 0 0 0 0 0 0 0 0 0 0 0 0 0 0 0 0 0 0 0 0 0 0 0 0 0 0 0 0 0 0 0 0 0 0 0 0 0 -0 0 0 0 0 0 -0 -0 0 -0
0 0 0 0 0 0 0 0 0 0 0 0 0 0 0 0 0 0 0 0 0 0 0 0 0 0 0 0 0 0 0 0 0 0 0 0 0 0 0 0 0 0 0 0 0 0 0 -0 0 0 0 0 0 0
0 0 0 0 0 0 0 0 0 0 0 0 0 0 0 0 0 0 0 0 0 0 0 0 0 0 0 0 0 0 0 0 0 0 0 0 0 0 0 0 0 0 0 0 -0 0 -0 0 0 0 0 0 0 0
0 0 0 0 0 0 0 0 0 0 0 0 0 0 0 0 0 0 0 0 0 0 0 0 0 0 0 0 0 0 0 0 0 0 0 0 0 0 0 0 0 0 -0 -0 -0 -0 0 -0 0 0 0 0 0 0
0 0 0 0 0 0 0 0 0 0 0 0 0 0 0 0 0 0 0 0 0 0 0 0 0 0 0 0 0 0 0 0 0 0 0 0 0 0 0 0 -0 -0 -0 0 0 0 0 0 0 0 0 0 0 0
0 0 0 0 0 0 0 0 0 0 0 0 0 0 0 0 0 0 0 0 0 0 0 0 0 0 0 0 0 0 0 0 0 0 0 0 0 0 0 -0 -0 0 0 0 0 0 0 0 0 0 0 0 0 0
0 0 0 0 0 0 0 0 -0 -0 -0 0 0 0 0 -0 0 0 0 0 0 0 0 0 0 0 0 0 0 0 0 0 0 0 0 0 -0 0 0 0 0 0 0 0 0 0 0 0 0 0 0 0 0 0
0 0 0 0 0 0 0 0 0 0 0 0 0 0 0 0 0 0 0 0 0 0 0 -0 -0 0 0 0 0 0 0 0 0 -0 -0 0 -0 0 0 0 0 0 0 0 0 0 0 0 0 0 0 0 0 0
0 0 0 -0 0 0 0 0 0 0 0 0 0 0 0 0 0 0 0 0 0 0 0 -0 0 -0 -0 0 0 -0 0 -0 0 0 0 0 0 0 0 0 0 0 0 0 0 0 0 0 0 0 0 0 0 0
0 0 0 0 0 0 -0 0 0 0 0 0 0 -0 0 0 0 0 -0 0 0 0 -0 0 -0 -0 -0 0 0 0 0 0 -0 0 0 0 0 0 0 0 0 0 0 0 0 0 0 0 0 0 0 0 0 0
0 0 0 0 0 0 -0 -0 -0 0 -0 -0 0 0 0 0 0 0 0 0 -0 -0 0 -0 -0 -0 -0 -0 0 0 -0 -0 -0 -0 0 0 0 0 0 0 0 0 0 0 0 0 0 0 0 0 0 0 0 0
0 0 0 0 0 0 0 0 0 0 0 -0 -0 -0 -0 0 0 0 0 0 0 0 0 0 0 0 0 0 -0 0 0 0 -0 -0 0 -0 -0 0 0 0 -0 0 0 0 0 0 0 0 0 0 0 0 0 0
0 -0 0 0 0 0 0 0 0 0 0 0 0 0 -0 0 -0 0 -0 -0 -0 0 0 0 0 0 0 0 0 0 0 0 0 -0 -0 0 0 0 0 -0 0 0 0 0 0 0 0 0 0 0 0 0 0 0
-0 -0 -0 0 0 0 0 0 0 0 0 0 0 0 0 0 0 0 0 0 0 0 0 0 0 0 0 0 0 0 0 -0 0 0 -0 -0 -0 -0 -0 -0 0 0 0 0 0 0 0 0 0 0 0 0 0 0
Wind_Speed_500mb
59 58 51 57 55 57 55 51 40 41 41 45 45 40 38 35 32 34 23 4 23 20 62 30 29 59 60 42 10 37 18 9 8 13 9 8 8 10 9 6 13 13 9 8 8 8 8 47 42 6 14 48 53 57
64 58 55 62 57 55 53 48 38 40 39 44 44 40 37 34 31 32 35 16 15 35 58 60 38 39 49 42 37 16 11 7 9 5 5 6 5 8 14 9 16 9 11 6 10 5 14 49 45 52 62 62 63 76
59 58 59 60 58 55 50 46 42 38 36 42 40 39 35 33 32 34 38 19 22 27 52 18 24 45 19 9 11 8 9 8 4 6 5 4 5 7 10 10 12 20 28 7 1 9 20 46 58 65 77 77 68 61
62 60 54 61 60 53 45 44 41 35 37 39 39 36 32 32 33 36 34 8 9 17 11 28 42 24 13 19 16 15 18 14 8 3 3 5 6 20 6 8 7 9 21 13 6 14 17 66 68 61 76 70 68 61
61 59 56 54 61 53 46 41 39 34 34 36 38 35 30 30 33 30 23 5 7 14 9 34 47 21 26 12 14 22 19 16 1 2 4 5 7 7 8 8 10 19 8 7 5 18 10 28 51 58 79 80 69 65
56 55 54 59 57 44 46 36 38 33 31 35 35 32 30 30 27 21 8 5 3 11 14 8 28 28 34 10 6 15 22 13 25 11 9 9 26 7 6 6 10 23 24 2 4 34 40 45 58 65 81 72 69 69
53 49 50 54 57 49 36 34 34 30 31 35 31 30 29 25 22 14 8 4 2 11 8 12 13 15 35 9 12 24 22 20 11 10 7 8 14 16 6 6 18 21 16 17 29 28 32 35 36 51 60 63 66 65
48 45 48 47 43 38 37 31 28 29 30 31 28 29 24 19 18 15 10 17 12 10 9 6 9 19 23 25 1 11 10 5 21 10 13 10 14 9 7 1 15 26 32 37 42 43 46 49 54 55 56 54 55 55
49 43 47 55 47 46 31 27 24 26 26 23 22 22 15 9 6 11 13 17 16 14 9 9 6 7 18 30 14 10 9 5 10 7 8 8 7 8 6 14 29 25 19 26 24 29 34 35 37 39 39 41 54 50
50 46 50 51 44 38 26 22 20 19 14 10 14 3 4 7 9 17 6 6 10 11 15 11 14 10 28 36 8 8 9 4 4 6 14 6 5 16 22 16 11 20 35 34 32 27 27 31 35 35 34 38 42 42
49 49 51 42 36 29 22 16 16 6 5 3 5 8 10 8 7 7 7 12 16 10 16 18 29 11 30 6 6 6 6 4 4 6 6 5 3 7 13 22 25 23 27 16 31 33 33 33 33 35 36 31 34 36
51 50 47 39 32 26 18 14 12 13 12 7 12 18 8 5 13 8 7 9 9 7 12 11 5 18 25 16 7 7 6 7 3 14 7 6 4 10 11 16 23 26 38 39 36 34 31 31 32 36 38 38 35 36
47 43 41 36 30 23 20 17 13 13 12 10 4 5 11 11 2 11 11 4 5 13 7 20 10 14 10 6 9 4 4 5 21 3 5 6 32 25 21 16 16 19 23 32 33 31 34 34 30 31 35 29 22 29
45 42 36 32 28 26 18 13 12 11 8 4 8 8 9 9 10 7 11 9 7 16 18 15 12 4 8 6 5 5 3 5 4 5 5 13 49 45 29 25 24 25 26 28 29 30 31 32 31 25 19 25 34 34
39 36 36 34 28 21 15 15 18 17 8 7 12 8 13 26 19 6 18 23 20 15 12 11 13 7 5 7 5 7 5 4 6 3 8 44 54 42 37 34 31 28 28 29 28 29 30 30 32 34 33 29 19 25
39 38 34 29 25 20 21 19 15 13 5 10 14 13 23 15 17 3 21 17 11 8 6 7 5 5 5 5 5 3 6 2 3 5 46 60 54 49 44 38 34 32 29 27 27 27 28 29 29 27 17 17 21 29
45 30 25 23 24 20 22 17 11 9 11 10 17 29 33 28 8 4 3 10 3 1 2 4 6 4 6 5 4 3 2 5 19 39 54 59 59 53 46 37 40 36 33 27 28 28 28 26 26 29 29 23 20 15
47 38 26 19 23 21 22 16 10 12 16 21 20 29 29 19 12 14 16 11 3 2 1 4 9 3 5 2 2 2 24 19 31 49 52 58 56 53 48 41 38 31 32 33 28 26 27 28 27 25 24 21 18 20
41 34 24 23 33 18 14 14 11 11 23 27 33 34 33 24 7 9 12 8 4 3 1 5 6 4 4 3 8 13 21 28 46 48 55 58 58 53 48 40 38 37 32 28 28 28 26 28 25 23 26 27 21 25
39 28 24 25 37 11 11 13 18 11 13 13 26 23 20 18 24 23 18 16 10 5 4 5 4 4 4 7 12 8 18 30 45 45 47 52 47 50 48 45 42 36 28 26 29 27 30 22 20 25 20 31 22 24
19 16 16 23 33 8 7 5 13 13 16 17 23 28 13 18 25 20 13 17 13 10 9 12 10 6 5 9 9 9 14 25 44 60 59 51 51 53 50 46 42 35 33 27 32 33 24 27 27 25 24 26 21 18
17 17 15 21 10 8 11 13 12 8 8 20 28 22 17 20 18 24 28 19 9 22 24 21 17 14 14 9 7 15 11 19 31 44 46 54 52 56 53 49 44 38 32 28 31 31 26 35 35 19 27 26 20 26
24 23 8 11 12 13 12 13 15 15 6 7 9 7 8 11 13 28 9 18 22 24 21 14 14 16 17 9 8 9 14 24 34 40 50 52 51 54 51 52 47 43 34 31 27 27 25 44 32 23 32 25 27 23
21 8 7 12 17 8 11 16 12 11 12 15 7 9 12 8 9 4 8 19 25 30 31 26 29 22 18 14 13 10 17 23 33 41 51 47 53 57 46 45 45 38 36 29 26 23 25 36 33 28 29 24 27 22
7 9 7 9 11 11 9 18 18 10 11 16 20 16 4 4 1 7 10 19 39 39 36 36 32 32 27 21 20 19 18 26 35 42 43 47 47 50 44 41 38 31 35 29 31 35 29 27 23 33 31 26 31 26
7 11 8 18 12 10 9 9 17 22 16 16 9 12 13 6 11 10 7 22 45 41 42 39 38 28 20 30 27 25 26 19 24 46 36 40 41 45 45 38 39 35 25 29 42 34 25 24 23 30 27 31 29 28
6 9 16 17 13 17 10 17 17 6 14 10 4 4 2 5 9 4 10 19 24 33 35 36 28 32 30 30 24 26 18 23 30 22 33 36 31 33 29 37 31 34 34 33 34 28 29 29 25 26 25 25 24 29
11 7 14 23 21 16 5 4 6 5 4 6 6 11 6 6 6 4 12 20 41 43 35 27 23 23 28 31 28 32 31 25 24 21 19 18 24 26 25 29 32 31 31 29 27 25 26 36 31 31 27 25 24 19
12 12 15 16 17 12 13 8 11 7 12 9 8 5 5 9 3 21 40 29 34 30 33 30 28 25 22 26 30 21 16 21 26 22 23 29 30 30 26 29 25 19 28 32 30 25 28 36 36 31 28 25 21 20
15 19 11 10 13 11 12 14 11 16 11 25 16 9 13 2 15 8 29 40 36 31 33 34 27 27 33 33 32 24 30 25 19 34 27 26 22 19 16 25 25 26 25 23 24 29 34 30 26 32 27 23 24 24
5 15 11 11 9 21 22 14 18 20 25 13 2 11 3 13 5 32 26 27 35 28 26 28 23 20 20 22 25 20 26 29 26 24 24 27 23 20 24 25 16 21 29 25 18 15 19 22 24 28 30 25 23 22
8 13 12 9 13 16 18 23 15 12 8 5 7 13 13 5 15 25 19 17 15 27 20 14 17 15 12 19 21 21 19 22 25 26 28 29 30 22 24 30 30 27 29 21 18 17 12 24 23 26 25 25 23 22
20 16 17 11 8 9 13 11 8 4 6 6 5 8 4 6 9 8 21 16 15 19 16 11 11 11 14 9 20 19 22 22 19 23 30 35 23 11 28 32 37 37 27 20 22 21 18 22 26 26 27 30 30 27
Wind_Direction_500mb
295 298 303 305 312 311 319 321 321 317 316 325 327 331 333 336 340 338 355 3 314 276 296 289 298 297 291 296 299 317 334 24 332 8 6 346 340 359 352 46 349 20 328 13 347 75 64 341 336 352 127 123 123 118
292 294 294 300 300 310 317 319 312 310 316 323 325 327 325 329 331 328 323 314 278 290 277 311 306 310 290 299 274 309 292 313 356 334 5 314 344 333 341 17 3 44 348 11 29 79 289 312 265 92 98 94 110 115
286 291 292 295 297 306 310 312 310 310 316 320 320 320 321 324 325 322 316 341 332 299 313 319 319 323 317 284 273 327 304 310 326 312 302 299 7 327 5 38 338 348 10 38 238 347 322 3 60 97 103 96 106 109
285 288 292 297 296 299 304 307 308 307 313 312 314 317 318 322 321 318 316 337 302 295 291 298 327 321 306 303 274 330 340 333 298 337 16 20 3 12 46 99 44 341 315 332 19 348 356 30 41 104 103 112 107 105
280 287 288 290 297 300 297 303 303 304 307 310 312 312 313 318 317 316 305 264 299 273 293 296 328 338 340 214 198 26 27 354 316 62 28 40 24 343 76 72 36 350 334 357 34 335 17 21 53 87 98 105 108 111
280 283 282 289 290 286 292 295 296 299 300 306 309 308 310 316 316 320 321 350 276 259 299 308 307 312 353 187 142 54 45 48 62 44 39 35 4 99 40 63 17 27 43 182 98 87 72 81 83 85 99 106 115 116
279 278 282 279 290 284 286 286 293 290 304 306 306 305 304 302 295 252 250 204 255 298 279 292 281 285 329 233 159 100 74 40 71 91 78 59 50 71 39 44 344 52 67 85 116 102 75 83 83 97 104 109 113 112
271 277 285 286 282 278 283 288 286 294 303 305 306 301 295 286 281 277 273 250 248 248 254 274 271 301 343 337 103 128 72 81 42 58 92 36 22 75 58 39 90 79 68 88 101 105 102 103 104 101 104 110 111 109
267 276 285 283 276 273 270 273 275 294 303 302 306 294 289 251 231 254 270 267 270 224 286 248 276 285 322 336 344 111 113 20 109 53 62 69 21 50 30 132 89 84 88 91 109 107 102 96 97 97 97 102 107 109
268 273 275 274 270 263 257 253 273 293 308 309 305 317 248 198 256 285 290 201 210 213 224 256 254 271 323 324 301 154 114 173 130 123 112 64 52 74 34 46 81 149 114 100 99 93 101 105 110 105 107 110 109 114
267 268 272 266 246 242 235 252 277 298 147 345 292 251 226 264 257 232 252 206 200 214 213 238 241 275 313 331 301 291 106 111 145 188 110 105 69 68 44 47 45 102 173 145 99 108 114 121 112 116 117 113 125 134
255 258 254 241 232 219 217 234 255 223 231 230 255 280 277 224 223 236 219 222 209 242 193 241 44 326 306 288 264 265 161 161 63 155 117 100 199 142 121 82 71 74 100 107 108 121 131 116 116 119 123 119 121 120
241 229 224 216 205 198 203 225 245 238 253 247 271 264 204 221 195 222 212 211 170 211 41 17 344 347 291 313 263 266 1 63 140 134 77 130 162 160 143 121 108 106 105 109 118 118 118 120 125 126 128 144 144 138
216 213 207 195 188 204 210 227 226 206 200 215 223 265 214 213 227 190 356 211 212 44 31 12 323 312 308 285 268 282 142 132 99 111 125 155 167 168 168 155 137 127 122 123 122 124 121 121 123 128 121 111 116 126
204 202 188 181 190 202 210 199 189 189 165 247 246 235 226 239 281 148 266 99 84 64 23 332 305 229 269 291 286 27 305 83 45 126 137 159 169 167 165 160 148 144 138 134 133 131 130 130 128 128 138 151 161 140
189 183 182 181 190 192 170 171 177 176 224 241 244 274 291 326 259 298 40 84 94 83 337 293 277 278 241 255 271 340 15 84 208 116 146 159 166 166 162 158 155 151 146 141 140 138 137 139 141 141 137 125 119 126
179 165 165 184 181 168 166 160 155 192 232 232 240 248 267 278 293 86 245 276 125 19 29 275 262 236 272 225 162 54 110 129 146 138 150 160 162 164 160 157 149 146 144 145 142 144 144 145 141 136 136 134 130 117
164 160 147 158 155 146 167 160 188 231 235 243 259 269 272 279 183 147 173 150 142 147 282 262 291 265 286 302 125 71 116 133 156 151 154 159 164 164 157 148 149 146 145 149 150 149 148 147 150 151 149 147 130 128
156 160 164 179 168 164 174 195 214 256 237 250 247 249 249 240 189 162 155 166 143 65 306 282 275 262 258 332 130 141 148 145 154 154 160 169 170 166 159 158 153 152 153 154 153 153 160 163 156 160 160 161 154 162
153 154 166 178 177 170 209 207 198 253 270 267 286 264 246 248 188 192 201 200 177 169 207 236 223 329 225 81 117 137 157 161 158 153 157 163 168 166 164 165 161 160 157 162 164 159 151 159 161 169 169 171 163 170
162 186 189 176 190 226 277 245 223 257 286 278 279 293 270 234 200 182 218 194 176 196 222 243 289 264 214 176 177 185 168 178 177 175 168 166 171 171 167 168 166 168 164 171 173 182 179 175 172 169 172 173 180 172
166 145 140 160 172 218 254 248 253 339 258 265 291 288 250 249 209 199 208 200 234 216 219 239 225 181 177 177 214 197 191 193 186 173 171 172 167 169 171 177 171 177 183 187 193 196 198 186 176 171 168 177 177 189
148 161 156 186 208 216 253 234 247 229 255 275 223 248 264 279 251 159 179 220 230 227 210 205 177 177 168 174 184 186 187 185 183 177 168 175 174 173 174 178 183 185 194 196 201 209 224 186 181 157 175 179 184 198
143 180 220 202 200 237 240 210 219 239 242 236 252 256 253 219 97 19 252 225 210 196 179 177 159 161 154 150 167 169 175 172 172 172 175 175 179 180 184 186 187 201 203 197 181 195 170 165 169 177 180 185 202 212
182 221 215 247 230 226 243 226 216 218 230 248 250 259 249 4 352 228 227 212 167 167 169 172 176 178 174 167 159 163 175 177 167 168 179 181 176 178 185 190 197 201 198 192 183 177 179 187 189 185 190 183 202 209
203 220 208 198 212 225 219 223 214 220 229 240 237 239 217 186 232 250 234 192 165 171 173 179 183 183 182 182 169 162 165 164 195 188 168 173 184 187 186 185 190 192 195 188 186 180 185 193 186 182 198 200 201 206
225 243 205 239 249 214 240 261 284 276 230 212 212 234 212 255 246 91 66 129 156 166 177 183 185 172 170 167 161 177 175 177 178 123 153 172 183 198 198 187 182 182 189 195 194 201 188 196 183 192 201 210 215 213
251 266 243 223 231 247 232 281 286 276 281 196 189 191 215 264 35 65 334 199 176 173 169 171 173 165 157 164 156 146 137 137 147 150 179 182 177 170 180 180 183 183 187 193 206 205 209 208 194 196 199 208 213 226
237 248 270 262 237 227 208 241 247 290 331 336 310 270 32 5 344 150 150 149 149 154 162 170 169 171 171 186 166 177 181 176 163 162 158 169 163 160 163 166 168 189 200 212 211 190 194 206 216 202 197 200 214 225
240 216 227 257 248 234 216 222 293 310 308 268 245 343 6 51 319 163 147 148 154 171 148 151 150 160 157 162 170 181 183 191 189 179 174 174 168 185 179 180 188 196 203 202 215 233 235 219 203 190 192 197 207 212
228 205 220 223 256 262 275 269 274 287 296 313 285 73 207 175 126 133 109 140 161 143 153 152 147 149 158 171 178 171 176 192 186 183 191 187 191 200 182 192 201 187 194 201 212 230 208 194 198 197 193 194 211 227
220 207 227 232 244 250 243 245 242 265 282 211 181 160 166 323 75 81 90 110 141 138 151 145 164 168 155 176 176 198 194 197 196 197 192 187 204 216 222 206 209 209 209 219 218 222 215 197 193 196 199 205 221 238
225 233 234 259 250 213 224 219 213 112 53 48 128 157 124 90 73 70 73 103 111 100 101 108 133 158 182 191 213 187 201 202 198 207 210 204 203 225 206 201 200 207 205 205 201 205 211 196 199 203 210 220 226 232
Wind_Speed_850mb
59 58 51 57 55 57 55 51 40 41 41 45 45 40 38 35 32 34 23 4 23 20 62 30 29 59 60 42 10 37 18 9 8 13 9 8 8 10 9 6 13 13 9 8 8 8 8 47 42 6 14 48 53 57
64 58 55 62 57 55 53 48 38 40 39 44 44 40 37 34 31 32 35 16 15 35 58 60 38 39 49 42 37 16 11 7 9 5 5 6 5 8 14 9 16 9 11 6 10 5 14 49 45 52 62 62 63 76
59 58 59 60 58 55 50 46 42 38 36 42 40 39 35 33 32 34 38 19 22 27 52 18 24 45 19 9 11 8 9 8 4 6 5 4 5 7 10 10 12 20 28 7 1 9 20 46 58 65 77 77 68 61
62 60 54 61 60 53 45 44 41 35 37 39 39 36 32 32 33 36 34 8 9 17 11 28 42 24 13 19 16 15 18 14 8 3 3 5 6 20 6 8 7 9 21 13 6 14 17 66 68 61 76 70 68 61
61 59 56 54 61 53 46 41 39 34 34 36 38 35 30 30 33 30 23 5 7 14 9 34 47 21 26 12 14 22 19 16 1 2 4 5 7 7 8 8 10 19 8 7 5 18 10 28 51 58 79 80 69 65
56 55 54 59 57 44 46 36 38 33 31 35 35 32 30 30 27 21 8 5 3 11 14 8 28 28 34 10 6 15 22 13 25 11 9 9 26 7 6 6 10 23 24 2 4 34 40 45 58 65 81 72 69 69
53 49 50 54 57 49 36 34 34 30 31 35 31 30 29 25 22 14 8 4 2 11 8 12 13 15 35 9 12 24 22 20 11 10 7 8 14 16 6 6 18 21 16 17 29 28 32 35 36 51 60 63 66 65
48 45 48 47 43 38 37 31 28 29 30 31 28 29 24 19 18 15 10 17 12 10 9 6 9 19 23 25 1 11 10 5 21 10 13 10 14 9 7 1 15 26 32 37 42 43 46 49 54 55 56 54 55 55
49 43 47 55 47 46 31 27 24 26 26 23 22 22 15 9 6 11 13 17 16 14 9 9 6 7 18 30 14 10 9 5 10 7 8 8 7 8 6 14 29 25 19 26 24 29 34 35 37 39 39 41 54 50
50 46 50 51 44 38 26 22 20 19 14 10 14 3 4 7 9 17 6 6 10 11 15 11 14 10 28 36 8 8 9 4 4 6 14 6 5 16 22 16 11 20 35 34 32 27 27 31 35 35 34 38 42 42
49 49 51 42 36 29 22 16 16 6 5 3 5 8 10 8 7 7 7 12 16 10 16 18 29 11 30 6 6 6 6 4 4 6 6 5 3 7 13 22 25 23 27 16 31 33 33 33 33 35 36 31 34 36
51 50 47 39 32 26 18 14 12 13 12 7 12 18 8 5 13 8 7 9 9 7 12 11 5 18 25 16 7 7 6 7 3 14 7 6 4 10 11 16 23 26 38 39 36 34 31 31 32 36 38 38 35 36
47 43 41 36 30 23 20 17 13 13 12 10 4 5 11 11 2 11 11 4 5 13 7 20 10 14 10 6 9 4 4 5 21 3 5 6 32 25 21 16 16 19 23 32 33 31 34 34 30 31 35 29 22 29
45 42 36 32 28 26 18 13 12 11 8 4 8 8 9 9 10 7 11 9 7 16 18 15 12 4 8 6 5 5 3 5 4 5 5 13 49 45 29 25 24 25 26 28 29 30 31 32 31 25 19 25 34 34
39 36 36 34 28 21 15 15 18 17 8 7 12 8 13 26 19 6 18 23 20 15 12 11 13 7 5 7 5 7 5 4 6 3 8 44 54 42 37 34 31 28 28 29 28 29 30 30 32 34 33 29 19 25
39 38 34 29 25 20 21 19 15 13 5 10 14 13 23 15 17 3 21 17 11 8 6 7 5 5 5 5 5 3 6 2 3 5 46 60 54 49 44 38 34 32 29 27 27 27 28 29 29 27 17 17 21 29
45 30 25 23 24 20 22 17 11 9 11 10 17 29 33 28 8 4 3 10 3 1 2 4 6 4 6 5 4 3 2 5 19 39 54 59 59 53 46 37 40 36 33 27 28 28 28 26 26 29 29 23 20 15
47 38 26 19 23 21 22 16 10 12 16 21 20 29 29 19 12 14 16 11 3 2 1 4 9 3 5 2 2 2 24 19 31 49 52 58 56 53 48 41 38 31 32 33 28 26 27 28 27 25 24 21 18 20
41 34 24 23 33 18 14 14 11 11 23 27 33 34 33 24 7 9 12 8 4 3 1 5 6 4 4 3 8 13 21 28 46 48 55 58 58 53 48 40 38 37 32 28 28 28 26 28 25 23 26 27 21 25
39 28 24 25 37 11 11 13 18 11 13 13 26 23 20 18 24 23 18 16 10 5 4 5 4 4 4 7 12 8 18 30 45 45 47 52 47 50 48 45 42 36 28 26 29 27 30 22 20 25 20 31 22 24
19 16 16 23 33 8 7 5 13 13 16 17 23 28 13 18 25 20 13 17 13 10 9 12 10 6 5 9 9 9 14 25 44 60 59 51 51 53 50 46 42 35 33 27 32 33 24 27 27 25 24 26 21 18
17 17 15 21 10 8 11 13 12 8 8 20 28 22 17 20 18 24 28 19 9 22 24 21 17 14 14 9 7 15 11 19 31 44 46 54 52 56 53 49 44 38 32 28 31 31 26 35 35 19 27 26 20 26
24 23 8 11 12 13 12 13 15 15 6 7 9 7 8 11 13 28 9 18 22 24 21 14 14 16 17 9 8 9 14 24 34 40 50 52 51 54 51 52 47 43 34 31 27 27 25 44 32 23 32 25 27 23
21 8 7 12 17 8 11 16 12 11 12 15 7 9 12 8 9 4 8 19 25 30 31 26 29 22 18 14 13 10 17 23 33 41 51 47 53 57 46 45 45 38 36 29 26 23 25 36 33 28 29 24 27 22
7 9 7 9 11 11 9 18 18 10 11 16 20 16 4 4 1 7 10 19 39 39 36 36 32 32 27 21 20 19 18 26 35 42 43 47 47 50 44 41 38 31 35 29 31 35 29 27 23 33 31 26 31 26
7 11 8 18 12 10 9 9 17 22 16 16 9 12 13 6 11 10 7 22 45 41 42 39 38 28 20 30 27 25 26 19 24 46 36 40 41 45 45 38 39 35 25 29 42 34 25 24 23 30 27 31 29 28
6 9 16 17 13 17 10 17 17 6 14 10 4 4 2 5 9 4 10 19 24 33 35 36 28 32 30 30 24 26 18 23 30 22 33 36 31 33 29 37 31 34 34 33 34 28 29 29 25 26 25 25 24 29
11 7 14 23 21 16 5 4 6 5 4 6 6 11 6 6 6 4 12 20 41 43 35 27 23 23 28 31 28 32 31 25 24 21 19 18 24 26 25 29 32 31 31 29 27 25 26 36 31 31 27 25 24 19
12 12 15 16 17 12 13 8 11 7 12 9 8 5 5 9 3 21 40 29 34 30 33 30 28 25 22 26 30 21 16 21 26 22 23 29 30 30 26 29 25 19 28 32 30 25 28 36 36 31 28 25 21 20
15 19 11 10 13 11 12 14 11 16 11 25 16 9 13 2 15 8 29 40 36 31 33 34 27 27 33 33 32 24 30 25 19 34 27 26 22 19 16 25 25 26 25 23 24 29 34 30 26 32 27 23 24 24
5 15 11 11 9 21 22 14 18 20 25 13 2 11 3 13 5 32 26 27 35 28 26 28 23 20 20 22 25 20 26 29 26 24 24 27 23 20 24 25 16 21 29 25 18 15 19 22 24 28 30 25 23 22
8 13 12 9 13 16 18 23 15 12 8 5 7 13 13 5 15 25 19 17 15 27 20 14 17 15 12 19 21 21 19 22 25 26 28 29 30 22 24 30 30 27 29 21 18 17 12 24 23 26 25 25 23 22
20 16 17 11 8 9 13 11 8 4 6 6 5 8 4 6 9 8 21 16 15 19 16 11 11 11 14 9 20 19 22 22 19 23 30 35 23 11 28 32 37 37 27 20 22 21 18 22 26 26 27 30 30 27
Wind_Direction_850mb
295 298 303 305 312 311 319 321 321 317 316 325 327 331 333 336 340 338 355 3 314 276 296 289 298 297 291 296 299 317 334 24 332 8 6 346 340 359 352 46 349 20 328 13 347 75 64 341 336 352 127 123 123 118
292 294 294 300 300 310 317 319 312 310 316 323 325 327 325 329 331 328 323 314 278 290 277 311 306 310 290 299 274 309 292 313 356 334 5 314 344 333 341 17 3 44 348 11 29 79 289 312 265 92 98 94 110 115
286 291 292 295 297 306 310 312 310 310 316 320 320 320 321 324 325 322 316 341 332 299 313 319 319 323 317 284 273 327 304 310 326 312 302 299 7 327 5 38 338 348 10 38 238 347 322 3 60 97 103 96 106 109
285 288 292 297 296 299 304 307 308 307 313 312 314 317 318 322 321 318 316 337 302 295 291 298 327 321 306 303 274 330 340 333 298 337 16 20 3 12 46 99 44 341 315 332 19 348 356 30 41 104 103 112 107 105
280 287 288 290 297 300 297 303 303 304 307 310 312 312 313 318 317 316 305 264 299 273 293 296 328 338 340 214 198 26 27 354 316 62 28 40 24 343 76 72 36 350 334 357 34 335 17 21 53 87 98 105 108 111
280 283 282 289 290 286 292 295 296 299 300 306 309 308 310 316 316 320 321 350 276 259 299 308 307 312 353 187 142 54 45 48 62 44 39 35 4 99 40 63 17 27 43 182 98 87 72 81 83 85 99 106 115 116
279 278 282 279 290 284 286 286 293 290 304 306 306 305 304 302 295 252 250 204 255 298 279 292 281 285 329 233 159 100 74 40 71 91 78 59 50 71 39 44 344 52 67 85 116 102 75 83 83 97 104 109 113 112
271 277 285 286 282 278 283 288 286 294 303 305 306 301 295 286 281 277 273 250 248 248 254 274 271 301 343 337 103 128 72 81 42 58 92 36 22 75 58 39 90 79 68 88 101 105 102 103 104 101 104 110 111 109
267 276 285 283 276 273 270 273 275 294 303 302 306 294 289 251 231 254 270 267 270 224 286 248 276 285 322 336 344 111 113 20 109 53 62 69 21 50 30 132 89 84 88 91 109 107 102 96 97 97 97 102 107 109
268 273 275 274 270 263 257 253 273 293 308 309 305 317 248 198 256 285 290 201 210 213 224 256 254 271 323 324 301 154 114 173 130 123 112 64 52 74 34 46 81 149 114 100 99 93 101 105 110 105 107 110 109 114
267 268 272 266 246 242 235 252 277 298 147 345 292 251 226 264 257 232 252 206 200 214 213 238 241 275 313 331 301 291 106 111 145 188 110 105 69 68 44 47 45 102 173 145 99 108 114 121 112 116 117 113 125 134
255 258 254 241 232 219 217 234 255 223 231 230 255 280 277 224 223 236 219 222 209 242 193 241 44 326 306 288 264 265 161 161 63 155 117 100 199 142 121 82 71 74 100 107 108 121 131 116 116 119 123 119 121 120
241 229 224 216 205 198 203 225 245 238 253 247 271 264 204 221 195 222 212 211 170 211 41 17 344 347 291 313 263 266 1 63 140 134 77 130 162 160 143 121 108 106 105 109 118 118 118 120 125 126 128 144 144 138
216 213 207 195 188 204 210 227 226 206 200 215 223 265 214 213 227 190 356 211 212 44 31 12 323 312 308 285 268 282 142 132 99 111 125 155 167 168 168 155 137 127 122 123 122 124 121 121 123 128 121 111 116 126
204 202 188 181 190 202 210 199 189 189 165 247 246 235 226 239 281 148 266 99 84 64 23 332 305 229 269 291 286 27 305 83 45 126 137 159 169 167 165 160 148 144 138 134 133 131 130 130 128 128 138 151 161 140
189 183 182 181 190 192 170 171 177 176 224 241 244 274 291 326 259 298 40 84 94 83 337 293 277 278 241 255 271 340 15 84 208 116 146 159 166 166 162 158 155 151 146 141 140 138 137 139 141 141 137 125 119 126
179 165 165 184 181 168 166 160 155 192 232 232 240 248 267 278 293 86 245 276 125 19 29 275 262 236 272 225 162 54 110 129 146 138 150 160 162 164 160 157 149 146 144 145 142 144 144 145 141 136 136 134 130 117
164 160 147 158 155 146 167 160 188 231 235 243 259 269 272 279 183 147 173 150 142 147 282 262 291 265 286 302 125 71 116 133 156 151 154 159 164 164 157 148 149 146 145 149 150 149 148 147 150 151 149 147 130 128
156 160 164 179 168 164 174 195 214 256 237 250 247 249 249 240 189 162 155 166 143 65 306 282 275 262 258 332 130 141 148 145 154 154 160 169 170 166 159 158 153 152 153 154 153 153 160 163 156 160 160 161 154 162
153 154 166 178 177 170 209 207 198 253 270 267 286 264 246 248 188 192 201 200 177 169 207 236 223 329 225 81 117 137 157 161 158 153 157 163 168 166 164 165 161 160 157 162 164 159 151 159 161 169 169 171 163 170
162 186 189 176 190 226 277 245 223 257 286 278 279 293 270 234 200 182 218 194 176 196 222 243 289 264 214 176 177 185 168 178 177 175 168 166 171 171 167 168 166 168 164 171 173 182 179 175 172 169 172 173 180 172
166 145 140 160 172 218 254 248 253 339 258 265 291 288 250 249 209 199 208 200 234 216 219 239 225 181 177 177 214 197 191 193 186 173 171 172 167 169 171 177 171 177 183 187 193 196 198 186 176 171 168 177 177 189
148 161 156 186 208 216 253 234 247 229 255 275 223 248 264 279 251 159 179 220 230 227 210 205 177 177 168 174 184 186 187 185 183 177 168 175 174 173 174 178 183 185 194 196 201 209 224 186 181 157 175 179 184 198
143 180 220 202 200 237 240 210 219 239 242 236 252 256 253 219 97 19 252 225 210 196 179 177 159 161 154 150 167 169 175 172 172 172 175 175 179 180 184 186 187 201 203 197 181 195 170 165 169 177 180 185 202 212
182 221 215 247 230 226 243 226 216 218 230 248 250 259 249 4 352 228 227 212 167 167 169 172 176 178 174 167 159 163 175 177 167 168 179 181 176 178 185 190 197 201 198 192 183 177 179 187 189 185 190 183 202 209
203 220 208 198 212 225 219 223 214 220 229 240 237 239 217 186 232 250 234 192 165 171 173 179 183 183 182 182 169 162 165 164 195 188 168 173 184 187 186 185 190 192 195 188 186 180 185 193 186 182 198 200 201 206
225 243 205 239 249 214 240 261 284 276 230 212 212 234 212 255 246 91 66 129 156 166 177 183 185 172 170 167 161 177 175 177 178 123 153 172 183 198 198 187 182 182 189 195 194 201 188 196 183 192 201 210 215 213
251 266 243 223 231 247 232 281 286 276 281 196 189 191 215 264 35 65 334 199 176 173 169 171 173 165 157 164 156 146 137 137 147 150 179 182 177 170 180 180 183 183 187 193 206 205 209 208 194 196 199 208 213 226
237 248 270 262 237 227 208 241 247 290 331 336 310 270 32 5 344 150 150 149 149 154 162 170 169 171 171 186 166 177 181 176 163 162 158 169 163 160 163 166 168 189 200 212 211 190 194 206 216 202 197 200 214 225
240 216 227 257 248 234 216 222 293 310 308 268 245 343 6 51 319 163 147 148 154 171 148 151 150 160 157 162 170 181 183 191 189 179 174 174 168 185 179 180 188 196 203 202 215 233 235 219 203 190 192 197 207 212
228 205 220 223 256 262 275 269 274 287 296 313 285 73 207 175 126 133 109 140 161 143 153 152 147 149 158 171 178 171 176 192 186 183 191 187 191 200 182 192 201 187 194 201 212 230 208 194 198 197 193 194 211 227
220 207 227 232 244 250 243 245 242 265 282 211 181 160 166 323 75 81 90 110 141 138 151 145 164 168 155 176 176 198 194 197 196 197 192 187 204 216 222 206 209 209 209 219 218 222 215 197 193 196 199 205 221 238
225 233 234 259 250 213 224 219 213 112 53 48 128 157 124 90 73 70 73 103 111 100 101 108 133 158 182 191 213 187 201 202 198 207 210 204 203 225 206 201 200 207 205 205 201 205 211 196 199 203 210 220 226 232